This demonstration page uses our WeatherBlox Daily Observations layout. Learn more.

40.92945, -100.16068

Hourly Observations for June 6, 2018

Temp ( °F °C ) Dew Point ( °F °C ) Humidity (%) Winds ( mph kmh ) Pressure ( in mb ) Visibility ( mi km ) Precip ( " mm )
12:15 am 00:15 Clear 76 24.4 63 17.4 65 65 S 12 19 29.71 1006 10 16.0934 0 0
12:35 am 00:35 Clear 76 24.6 64 17.5 65 65 S 13 20 29.71 1006 10 16.0934 0 0
12:55 am 00:55 Clear 75 24.1 64 17.5 67 67 S 13 20 29.71 1006 10 16.0934 0 0
1:15 am 01:15 Clear 74 23.5 64 17.6 70 70 S 10 17 29.71 1006 10 16.0934 0 0
1:35 am 01:35 Clear 73 23 64 17.5 71 71 S 9 15 29.71 1006 10 16.0934 0 0
1:55 am 01:55 Clear 73 22.7 64 17.5 73 73 S 10 17 29.71 1006 10 16.0934 0 0
2:15 am 02:15 Clear 73 22.6 64 17.6 73 73 S 10 17 29.71 1006 10 16.0934 0 0
2:35 am 02:35 Clear 73 22.6 64 17.7 74 74 S 10 17 29.71 1006 10 16.0934 0 0
2:55 am 02:55 Clear 73 22.5 64 17.8 75 75 S 9 15 29.71 1006 10 16.0934 0 0
3:15 am 03:15 Clear 72 22 64 17.9 78 78 SW 6 9 29.74 1007 10 16.0934 0 0
3:35 am 03:35 Clear 71 21.7 64 17.8 79 79 SSW 3 6 29.77 1008 10 16.0934 0 0
3:55 am 03:55 Clear 68 20 63 17.4 85 85 N 5 7 29.8 1009 10 16.0934 0 0
4:15 am 04:15 Clear 68 19.8 64 17.6 87 87 ENE 9 15 29.77 1008 10 16.0934 0 0
4:35 am 04:35 Clear 68 20.2 64 17.7 86 86 NW 3 6 29.8 1009 10 16.0934 0 0
4:55 am 04:55 Clear 68 19.8 64 17.6 87 87 NE 3 6 29.8 1009 10 16.0934 0 0
5:15 am 05:15 Clear 66 18.8 63 17.4 92 92 NE 6 9 29.8 1009 7 11.26538 0 0
5:35 am 05:35 Clear 66 19 64 17.5 91 91 ENE 6 9 29.8 1009 7 11.26538 0 0
5:55 am 05:55 Clear 66 18.9 64 17.5 92 92 ESE 7 11 29.8 1009 7 11.26538 0 0
6:15 am 06:15 Sunny 68 20 64 18 88 88 ESE 7 11 29.77 1008 10 16.0934 0 0
6:35 am 06:35 Sunny 68 20 64 18 88 88 E 6 9 29.8 1009 7 11.26538 0 0
6:55 am 06:55 Partly Cloudy 69 20.5 65 18.1 86 86 SE 8 13 29.8 1009 10 16.0934 0 0
7:15 am 07:15 Mostly Cloudy with Light Drizzle 70 20.9 65 18.5 86 86 ESE 15 24 29.74 1007 7 11.26538 0 0
7:35 am 07:35 Partly Cloudy 70 21.3 65 18.6 85 85 SE 9 15 29.74 1007 7 11.26538 0 0
7:55 am 07:55 Sunny 71 21.7 66 19.1 85 85 NW 3 6 29.77 1008 7 11.26538 0 0
8:15 am 08:15 Sunny 72 22.2 67 19.7 86 86 Calm 29.74 1007 7 11.26538 0 0
8:35 am 08:35 Sunny 72 22.3 67 19.7 85 85 Calm 29.77 1008 7 11.26538 0 0
8:55 am 08:55 Sunny 73 22.5 68 20 86 86 ESE 6 9 29.77 1008 7 11.26538 0 0
9:15 am 09:15 Sunny 73 22.7 68 19.8 84 84 ENE 8 13 29.77 1008 7 11.26538 0 0
9:35 am 09:35 Sunny 73 22.9 68 19.9 83 83 SE 3 6 29.77 1008 7 11.26538 0 0
9:55 am 09:55 Sunny 74 23.6 69 20.4 82 82 Calm 29.77 1008 7 11.26538 0 0
10:15 am 10:15 Sunny 76 24.5 69 20.4 78 78 SE 9 15 29.77 1008 7 11.26538 0 0
10:35 am 10:35 Sunny 76 24.5 69 20.5 78 78 SE 5 7 29.77 1008 7 11.26538 0 0
10:55 am 10:55 Sunny 76 24.5 69 20.5 78 78 Calm 29.77 1008 10 16.0934 0 0
11:15 am 11:15 Sunny 77 25 70 20.9 78 78 SSE 6 9 29.77 1008 7 11.26538 0 0
11:35 am 11:35 Sunny 77 25.2 69 20.8 77 77 SE 6 9 29.77 1008 10 16.0934 0 0
11:55 am 11:55 Sunny 77 24.8 69 20.6 78 78 E 5 7 29.8 1009 10 16.0934 0 0
12:15 pm 12:15 Sunny 76 24.6 69 20.4 78 78 E 5 7 29.8 1009 10 16.0934 0 0
12:35 pm 12:35 Sunny 77 25 69 20.5 76 76 E 5 7 29.8 1009 10 16.0934 0 0
12:55 pm 12:55 Partly Cloudy 78 25.6 69 20.8 75 75 ENE 6 9 29.8 1009 10 16.0934 0 0
1:15 pm 13:15 Sunny 80 26.6 70 21.3 73 73 ESE 8 13 29.77 1008 10 16.0934 0 0
1:35 pm 13:35 Sunny 82 27.6 71 21.6 70 70 ESE 12 19 29.74 1007 10 16.0934 0 0
1:55 pm 13:55 Sunny 83 28.1 71 21.9 69 69 SE 17 28 29.74 1007 10 16.0934 0 0
2:15 pm 14:15 Sunny 84 29 70 20.9 62 62 SE 15 24 29.74 1007 10 16.0934 0 0
2:35 pm 14:35 Sunny 84 29.1 67 19.5 56 56 SE 15 24 29.74 1007 10 16.0934 0 0
2:55 pm 14:55 Sunny 87 30.3 68 20 54 54 SSE 13 20 29.71 1006 10 16.0934 0 0
3:15 pm 15:15 Sunny 86 30.1 68 20.2 55 55 SSE 15 24 29.71 1006 10 16.0934 0 0
3:35 pm 15:35 Sunny 87 30.7 69 20.6 55 55 S 14 22 29.68 1005 10 16.0934 0 0
3:55 pm 15:55 Sunny 88 30.9 71 21.5 57 57 SSE 16 26 29.68 1005 10 16.0934 0 0
4:15 pm 16:15 Sunny 88 30.9 70 21.3 57 57 SSE 14 22 29.68 1005 10 16.0934 0 0
4:35 pm 16:35 Sunny 88 31.3 71 21.5 56 56 SSE 9 15 29.68 1005 10 16.0934 0 0
4:55 pm 16:55 Sunny 88 31.2 71 21.5 56 56 SSE 13 20 29.68 1005 10 16.0934 0 0
5:15 pm 17:15 Sunny 88 31.3 70 21 54 54 S 12 19 29.68 1005 10 16.0934 0 0
5:35 pm 17:35 Sunny 89 31.5 67 19.6 49 49 S 14 22 29.68 1005 10 16.0934 0 0
5:55 pm 17:55 Sunny 88 31.1 68 20 52 52 S 12 19 29.65 1004 10 16.0934 0 0
6:15 pm 18:15 Sunny 88 31.2 70 20.9 54 54 S 12 19 29.65 1004 10 16.0934 0 0
6:35 pm 18:35 Sunny 89 31.4 71 21.7 56 56 SSE 13 20 29.65 1004 10 16.0934 0 0
6:55 pm 18:55 Sunny 88 31 71 21.4 57 57 SSE 12 19 29.65 1004 10 16.0934 0 0
7:15 pm 19:15 Sunny 88 30.9 70 21.2 56 56 SSE 12 19 29.62 1003 10 16.0934 0 0
7:35 pm 19:35 Sunny 85 29.6 68 20 56 56 SSE 12 19 29.62 1003 10 16.0934 0 0
7:55 pm 19:55 Sunny 84 28.9 67 19.3 56 56 SSE 8 13 29.65 1004 10 16.0934 0 0
8:15 pm 20:15 Sunny 82 28 68 20.2 63 63 SSE 8 13 29.68 1005 10 16.0934 0 0
8:35 pm 20:35 Sunny 82 27.5 68 20 64 64 SSE 8 13 29.68 1005 10 16.0934 0 0
8:55 pm 20:55 Sunny 81 27.1 67 19.5 63 63 SSE 7 11 29.68 1005 10 16.0934 0 0
9:15 pm 21:15 Clear 80 26.4 67 19.2 65 65 SSE 6 9 29.68 1005 10 16.0934 0 0
9:35 pm 21:35 Clear 80 26.4 66 19 64 64 SSE 7 11 29.68 1005 10 16.0934 0 0
9:55 pm 21:55 Clear 78 25.5 66 18.7 66 66 SE 7 11 29.68 1005 10 16.0934 0 0
10:15 pm 22:15 Clear 77 25.1 65 18.5 67 67 SE 8 13 29.74 1007 10 16.0934 0 0
10:35 pm 22:35 Clear 77 25 65 18.3 66 66 ESE 7 11 29.74 1007 10 16.0934 0 0
10:55 pm 22:55 Clear 77 24.9 64 17.8 65 65 E 7 11 29.74 1007 10 16.0934 0 0
11:15 pm 23:15 Clear 75 23.9 64 17.6 68 68 E 8 13 29.77 1008 10 16.0934 0 0
11:35 pm 23:35 Clear 76 24.7 62 16.6 61 61 E 12 19 29.8 1009 10 16.0934 0 0
11:55 pm 23:55 Clear 81 27 59 15.1 48 48 SE 8 13 29.77 1008 10 16.0934 0 0

Powered by AerisWeather